Location: Chantarel
(45.1638°N, 1.7873°E)
Time: 18:25:54
(UTC+00:00)

PSLV R/B - Pass Details

Date: 03 March 2021
Orbit: 567 x 598 km, 98.2° (Epoch: 15 April)

Event Time Altitude Azimuth Distance (km) Brightness Sun altitude
Rises 18:34:11 0° 14° (NNE) 2,806 7.3 -9.8°
Reaches altitude 10° 18:36:22 10° 16° (NNE) 1,897 6.4 -10.2°
Maximum altitude 18:40:29 79° 103° (ESE) 590 3.8 -10.9°
Drops below altitude 10° 18:44:31 10° 190° (S) 1,866 6.6 -11.6°
Sets 18:46:38 0° 192° (SSW) 2,756 7.5 -12.0°
